{"data":{"norad_id":68630,"epoch":"2026-05-24T18:04:46.355520Z","epoch_age_seconds":103147,"freshness":"FRESH","line1":"1 68630U 26074D   26144.75331430  .00004863  00000+0  20692-3 0  9997","line2":"2 68630  60.0216 268.0707 0023621   7.9775 352.1677 15.24391730  7204","mean_motion":15.2439173,"eccentricity":0.0023621,"inclination_deg":60.0216,"raan_deg":268.0707,"arg_perigee_deg":7.9775,"mean_anomaly_deg":352.1677,"bstar":0.00020692,"rev_number":720,"period_min":94.463907909025,"perigee_km":476.38316134566,"apogee_km":508.84195641171,"semimajor_km":6870.7495588787,"source":"CELESTRAK","updated_at":"2026-05-25T13:38:07.987610Z"}}